Home   Weather   Gitega   Past weeks

Flag for Burundi Past Weather in Gitega, Burundi — Yesterday and Last 2 Weeks

Now
72 °F

Partly sunny.


Feels Like: 75 °F
Forecast: 60 / 72 °F
Wind: 6 mph from Southwest

Location: Kigali Airport

Current Time: Aug 18, 2017 at 6:25:54 pm

Latest Report: Aug 18, 2017 at 6:00 pm


Visibility: N/A

Pressure: 30.07 "Hg (24.76 "Hg at 1679m altitude)

Humidity: 65%

Dew Point: 59 °F

Location of GitegaLocation

Past Weather in Gitega — Graph

°F

Gitega Temperature Yesterday

Maximum temperature yesterday: 82 °F (at 12:30 pm)
Minimum temperature yesterday: 66 °F (at 10:30 pm)
Average temperature yesterday: 73 °F

High & Low Weather Summary for the Past Weeks

 TemperatureHumidityPressure
High86 °F (Aug 16, 3:30 pm)88% (Aug 18, 6:00 am)30.24 "Hg (Aug 18, 6:00 am)
Low61 °F (Aug 4, 3:30 am)29% (Aug 16, 3:30 pm)29.95 "Hg (Aug 16, 4:00 pm)
Average73 °F52%30.12 "Hg
* Reported Aug 3 5:00 pm — Aug 18 5:00 pm, Gitega. Weather by CustomWeather, © 2017

Note: Actual official high and low records may vary slightly from our data, if they occured in-between our weather recording intervals... More about our weather records

Advertising

Gitega Weather History for the Previous 24 Hours

Scroll right to see more
 ConditionsComfort  
Time TempWeatherWind HumidityBarometerVisibility
5:00 pm
Fri, Aug 18
73 °FThunderstorms. Partly sunny.7 mph61%30.04 "HgN/A
4:00 pm81 °FThunderstorms. Partly sunny.17 mph45%30.01 "HgN/A
3:30 pm77 °FThunderstorms. Partly sunny.13 mph51%30.01 "HgN/A
2:00 pm84 °FThunderstorms. Scattered clouds.8 mph43%30.09 "HgN/A
12:00 pm81 °FPartly sunny.6 mph45%30.09 "HgN/A
11:30 am79 °FPartly sunny.12 mph51%30.12 "HgN/A
11:00 am82 °FScattered clouds.5 mph45%30.12 "HgN/A
10:30 am79 °FScattered clouds.3 mph51%30.15 "HgN/A
10:00 am75 °FScattered clouds.5 mph61%30.18 "HgN/A
9:30 am73 °FScattered clouds.5 mph65%30.18 "HgN/A
9:00 am72 °FScattered clouds.6 mph69%30.18 "HgN/A
8:30 am68 °FScattered clouds.3 mph78%30.18 "HgN/A
8:00 am68 °FScattered clouds.2 mph78%30.15 "HgN/A
7:00 am63 °FScattered clouds.No wind88%30.12 "Hg4 mi
6:30 am63 °FPassing clouds.2 mph88%30.12 "HgN/A
6:00 am63 °FPassing clouds.5 mph88%30.09 "HgN/A
5:00 am64 °FPassing clouds.No wind83%30.09 "HgN/A
4:30 am64 °FPassing clouds.No wind83%30.09 "HgN/A
4:00 am64 °FPassing clouds.2 mph83%30.07 "HgN/A
3:30 am64 °FPassing clouds.2 mph83%30.07 "HgN/A
3:00 am64 °FPassing clouds.6 mph83%30.07 "HgN/A
2:00 am64 °FPassing clouds.6 mph83%30.09 "HgN/A
1:30 am64 °FPassing clouds.5 mph83%30.09 "HgN/A
1:00 am64 °FPassing clouds.2 mph83%30.09 "HgN/A
12:30 am64 °FPassing clouds.No wind83%30.12 "HgN/A
12:00 am66 °FPassing clouds.3 mph78%30.12 "HgN/A
11:30 pm
Thu, Aug 17
66 °FPassing clouds.5 mph78%30.12 "HgN/A
11:00 pm68 °FPassing clouds.No wind73%30.12 "HgN/A
10:30 pm66 °FPassing clouds.No wind78%30.12 "HgN/A
10:00 pm68 °FPassing clouds.2 mph73%30.12 "HgN/A
9:30 pm68 °FPassing clouds.3 mph73%30.12 "HgN/A
9:00 pm70 °FPartly cloudy.8 mph69%30.12 "HgN/A
8:30 pm70 °FPartly cloudy.6 mph69%30.12 "HgN/A
8:00 pm68 °FPassing clouds.3 mph73%30.09 "HgN/A
7:30 pm68 °FPassing clouds.2 mph73%30.09 "HgN/A
7:00 pm70 °FPassing clouds.2 mph69%30.07 "HgN/A
6:30 pm70 °FPassing clouds.3 mph69%30.04 "HgN/A
6:00 pm70 °FScattered clouds.6 mph69%30.04 "HgN/A
Weather by CustomWeather, © 2017

See weather overviewHow to use our weather pages